Solenzara, France

2:52 PM CEST on July 27, 2017 (GMT +0200)
Solenzara

Weather History for LFKS - December, 2012

Change the Weather History Date:

Saturday, December 22, 2012

  Actual Average (LFKJ) Record (LFKJ)
Temperature  
Mean Temperature 48 °F -  
Max Temperature 55 °F 55 °F 69 °F (2010)
Min Temperature 42 °F 39 °F 26 °F (1999)
Degree Days  
Heating Degree Days 16    
Moisture  
Dew Point 42 °F    
Average Humidity 80    
Maximum Humidity 87    
Minimum Humidity 63    
Precipitation  
Precipitation 0.00 in - - ()
Sea Level Pressure  
Sea Level Pressure 30.08 in    
Wind  
Wind Speed 5 mph ()    
Max Wind Speed 8 mph    
Max Gust Speed -    
Visibility 6.2 miles    
Events      
Averages and records for this station are not official NWS values.
T = Trace of Precipitation, MM = Missing Value Source: Averaged Metar Reports

Daily Weather History Graph

Daily Weather History Graph

Search for Another Location

Airport or City:

Trip Planner

Search our weather history database for the weather conditions in past years. The results will help you decide how hot, cold, wet, or windy it might be!

Date:

Astronomy

Dec. 22, 2012 Rise Set
Actual Time 7:47 AM CET 4:54 PM CET
Civil Twilight 7:15 AM CET 5:26 PM CET
Nautical Twilight 6:40 AM CET 6:01 PM CET
Astronomical Twilight 6:06 AM CET 6:35 PM CET
Moon 1:06 PM CET (12/22) 2:13 AM CET (12/22)
Length of Visible Light 10h 11m
Length of Day
9h 07m
Waxing Gibbous, 71% of the Moon is Illuminated
Dec 22
Waxing Gibbous
Dec 28
Full
Jan 5
Last Quarter
Jan 11
New
Jan 19
First Quarter

Hourly Weather History & Observations

Time (CET) Temp. Windchill Dew Point Humidity Pressure Visibility Wind Dir Wind Speed Gust Speed Precip Events Conditions
12:00 AM 46.4 °F 43.5 °F 42.8 °F 87% 29.95 in 6.2 mi West 5.8 mph - N/A   Mostly Cloudy
12:30 AM 46.4 °F 43.5 °F 42.8 °F 87% 29.95 in 6.2 mi West 5.8 mph - N/A   Mostly Cloudy
1:00 AM 46.4 °F 42.9 °F 41.0 °F 81% 29.95 in 6.2 mi West 6.9 mph - N/A   Unknown
1:30 AM 46.4 °F 42.9 °F 41.0 °F 81% 29.95 in 6.2 mi West 6.9 mph - N/A   Unknown
2:00 AM 44.6 °F 40.7 °F 41.0 °F 87% 29.98 in 6.2 mi West 6.9 mph - N/A   Scattered Clouds
2:30 AM 44.6 °F 40.7 °F 41.0 °F 87% 29.98 in 6.2 mi West 6.9 mph - N/A   Unknown
3:00 AM 46.4 °F 42.9 °F 41.0 °F 81% 29.98 in 6.2 mi West 6.9 mph - N/A   Unknown
3:30 AM 46.4 °F 43.5 °F 41.0 °F 81% 30.01 in 6.2 mi WNW 5.8 mph - N/A   Unknown
4:00 AM 44.6 °F 40.7 °F 41.0 °F 87% 30.01 in 6.2 mi West 6.9 mph - N/A   Unknown
4:30 AM 44.6 °F 40.7 °F 41.0 °F 87% 30.01 in 6.2 mi West 6.9 mph - N/A   Unknown
5:00 AM 44.6 °F 40.7 °F 41.0 °F 87% 30.01 in 6.2 mi West 6.9 mph - N/A   Unknown
5:30 AM 44.6 °F 40.7 °F 41.0 °F 87% 30.01 in 6.2 mi West 6.9 mph - N/A   Unknown
6:00 AM 44.6 °F 41.4 °F 41.0 °F 87% 30.01 in 6.2 mi West 5.8 mph - N/A   Unknown
6:30 AM 44.6 °F 40.7 °F 41.0 °F 87% 30.01 in 6.2 mi West 6.9 mph - N/A   Unknown
7:00 AM 42.8 °F 38.0 °F 39.2 °F 87% 30.04 in 6.2 mi West 8.1 mph - N/A   Unknown
7:30 AM 42.8 °F 38.0 °F 39.2 °F 87% 30.04 in 6.2 mi West 8.1 mph - N/A   Unknown
8:00 AM 42.8 °F 38.6 °F 39.2 °F 87% 30.06 in 6.2 mi West 6.9 mph - N/A   Unknown
8:30 AM 44.6 °F 40.7 °F 39.2 °F 81% 30.06 in 6.2 mi West 6.9 mph - N/A   Unknown
9:00 AM 46.4 °F 43.5 °F 41.0 °F 81% 30.09 in 6.2 mi West 5.8 mph - N/A   Unknown
9:30 AM 48.2 °F - 41.0 °F 76% 30.09 in 6.2 mi West 5.8 mph - N/A   Unknown
10:00 AM 50.0 °F - 42.8 °F 76% 30.12 in 6.2 mi Variable 2.3 mph - N/A   Unknown
10:30 AM 53.6 °F - 42.8 °F 67% 30.12 in 6.2 mi North 5.8 mph - N/A   Unknown
11:00 AM 53.6 °F - 44.6 °F 72% 30.12 in 6.2 mi NNE 5.8 mph - N/A   Unknown
11:30 AM 53.6 °F - 44.6 °F 72% 30.12 in 6.2 mi North 4.6 mph - N/A   Unknown
12:00 PM 55.4 °F - 44.6 °F 67% 30.12 in 6.2 mi ENE 5.8 mph - N/A   Partly Cloudy
12:30 PM 55.4 °F - 44.6 °F 67% 30.12 in 6.2 mi East 6.9 mph - N/A   Unknown
1:00 PM 55.4 °F - 42.8 °F 63% 30.12 in 6.2 mi ENE 5.8 mph - N/A   Unknown
1:30 PM 55.4 °F - 42.8 °F 63% 30.12 in 6.2 mi ENE 3.5 mph - N/A   Unknown
2:00 PM 55.4 °F - 44.6 °F 67% 30.12 in 6.2 mi East 4.6 mph - N/A   Unknown
2:30 PM 55.4 °F - 44.6 °F 67% 30.12 in 6.2 mi ENE 4.6 mph - N/A   Unknown
3:00 PM 55.4 °F - 44.6 °F 67% 30.12 in 6.2 mi East 3.5 mph - N/A   Unknown
3:30 PM 55.4 °F - 44.6 °F 67% 30.12 in 6.2 mi Variable 3.5 mph - N/A   Unknown
4:00 PM 53.6 °F - 44.6 °F 72% 30.12 in 6.2 mi Calm Calm - N/A   Mostly Cloudy
4:30 PM 53.6 °F - 46.4 °F 77% 30.12 in 6.2 mi Calm Calm - N/A   Overcast
5:00 PM 50.0 °F - 46.4 °F 87% 30.12 in 6.2 mi West 3.5 mph - N/A   Partly Cloudy
5:30 PM 48.2 °F - 44.6 °F 87% 30.12 in 6.2 mi West 5.8 mph - N/A   Unknown
6:00 PM 48.2 °F - 44.6 °F 87% 30.12 in 6.2 mi West 5.8 mph - N/A   Unknown
6:30 PM 48.2 °F - 44.6 °F 87% 30.12 in 6.2 mi West 6.9 mph - N/A   Unknown
7:00 PM 46.4 °F 42.9 °F 42.8 °F 87% 30.12 in 6.2 mi West 6.9 mph - N/A   Unknown
7:30 PM 46.4 °F 43.5 °F 42.8 °F 87% 30.15 in 6.2 mi West 5.8 mph - N/A   Unknown
8:00 PM 46.4 °F 42.9 °F 42.8 °F 87% 30.15 in 6.2 mi West 6.9 mph - N/A   Unknown
8:30 PM 46.4 °F 43.5 °F 42.8 °F 87% 30.15 in 6.2 mi West 5.8 mph - N/A   Unknown
9:00 PM 46.4 °F 42.9 °F 41.0 °F 81% 30.12 in 6.2 mi West 6.9 mph - N/A   Unknown
9:30 PM 46.4 °F 42.9 °F 41.0 °F 81% 30.15 in 6.2 mi West 6.9 mph - N/A   Unknown
10:00 PM 44.6 °F 43.1 °F 41.0 °F 87% 30.15 in 6.2 mi NW 3.5 mph - N/A   Unknown
10:30 PM 44.6 °F 42.2 °F 41.0 °F 87% 30.12 in 6.2 mi West 4.6 mph - N/A   Unknown
11:00 PM 44.6 °F 41.4 °F 41.0 °F 87% 30.15 in 6.2 mi West 5.8 mph - N/A   Unknown
11:30 PM 44.6 °F 43.1 °F 41.0 °F 87% 30.15 in 6.2 mi WNW 3.5 mph - N/A   Unknown